Погода Туапсе

Погода Туапсе : погода сейчас, прогноз погоды и архив. Всё, что Вы хотите узнать о погоде Туапсе!

Хотите узнать прогноз погоды Туапсе? Тогда Вам сюда: Погода Туапсе

Поиск расширенной информации на нашем сайте:

Полезная информация:

Другие новости

Новости СМИ2

Главная страница сайта

Новости сайта

03.07.2017

Напоминаем, что на нашем специализированном сайте Метеоцентр.Азия вы можете получить высокодетализированные автоматические прогнозы погоды по пунктам России, СНГ и мира в авиационном формате (включающие направление и скорость ветра, видимость, явления погоды, количество и форму облачности, нижнюю и верхнюю границу облачности).

Рекомендуем:

Погода Туапсе - сегодня

Время (UTC), дата Ветер
(°,м/с) 
Видим.   Явления Облачность Т
(°С)
Тd
(°С)
f(%) Тe
(°С)
Pmin
(гПа)
dP
(гПа)
Po
(мм)
O2
(г/м3)
Тmin Tmax R s Состояние
почвы
03 22.05.19 280 (З) 20000 м    10/5 1000 м кучево-дожд., средняя, верхняя 
[Cb cap|Ac trans|Ci fib]
+19.1 +13.5 70 +26  1013.5  0.1  755  282  +16.9        влажная 
06 22.05.19 040 (СВ) 10 км  слаб. ливневой дождь  10/8 600 м кучево-дожд., средняя 
[Cb cap|Ac As]
+17.6 +15 85 +26  1014.9  1.4  756  283           
09 22.05.19 150 (ЮВ) 20000 м  {ливн. осадки}  9/5 1000 м средняя, верхняя 
[Cu med, cong|Ac cast|Ci sp]
+22.6 +15 62 +31  1014.1  -0.7  755  278           
12 22.05.19 230 (ЮЗ) 20000 м  {ливн. осадки}  9/5 1000 м кучево-дожд., средняя, верхняя 
[Cb cap|Ac trans|Ci fib]
+23.3 +17.5 70 +36  1015.4  1.3  756  277           
15 22.05.19 140 (ЮВ) 20000 м  в посл. час ливневой дождь  6/4 1000 м кучево-дожд., верхняя 
[Cb cap|Ci sp]
+20.3 +16.5 79 +31  1015.2  -0.3  756  280    +25.4     
18 22.05.19 140 (ЮВ) 10 км  {ливн. осадки}  6/6 1000 м кучево-дожд. 
[Cb cap]
+19.4 +17.2 87 +32  1015.4  0.2  756  281           
21 22.05.19 190 (Ю) 3{11}  10 км    10/10 600 м кучево-дожд. 
[Cb cap]
+19.3 +15.4 78 +29  1015  -0.4  756  281           
00 23.05.19 120 (ЮВ) 10 км    8/4 1000 м верхняя 
[Cu Sc|Ci fib]
+18.3 +13 71 +24  1014.1  -0.9  755  283           
03 23.05.19 110 (В) 20000 м    8/3 1000 м верхняя 
[Cu Sc|Ci fib]
+18.5 +12.1 66 +23  1013.7  -0.4  755  283  +17.7    0.0    влажная 
06 23.05.19 160 (Ю) 20000 м    8/4 1000 м верхняя 
[Cu Sc|Ci fib]
+21.8 +14.2 62 +29  1013.7  0.1  755  279           
09 23.05.19 140 (ЮВ) 20000 м    9/8 1000 м верхняя 
[Cu Sc|Ci]
+20.2 +15.3 73 +29  1014.2  0.4  755  280           
12 23.05.19 140 (ЮВ) 20000 м    9/8 1000 м кучево-дожд., верхняя 
[Cb cap|Ci]
+20.3 +16.1 77 +31  1014.2  755  280           
15 23.05.19 160 (Ю) 20000 м    8/6 1000 м кучево-дожд., верхняя 
[Cb cap|Ci]
+19.9 +16.3 80 +32  1013.7  -0.5  755  280    +22.8       
18 23.05.19 150 (ЮВ) 10 км    8/6 1000 м кучево-дожд., верхняя 
[Cb cap|Ci]
+19.4 +15.3 77 +29  1013.9  0.2  755  281           
21 23.05.19 120 (ЮВ) 10 км    8/4 1000 м кучево-дожд., верхняя 
[Cb cap|Ci fib]
+19.2 +12.2 64 +24  1013  -0.9  754  282           
00 24.05.19 150 (ЮВ) 10 км    4/3 1000 м верхняя 
[Sc|Ci fib]
+19.1 +13.3 69 +26  1012.3  -0.7  754  281           
03 24.05.19 040 (СВ) 20000 м    1/0 верхняя 
[Ci fib]
+17.4 +12.8 74 +24  1011.5  -0.8  753  283  +17.3        влажная 
06 24.05.19 180 (Ю) 20000 м    6/0 верхняя 
[Ci fib]
+22.9 +12 50 +27  1011.3  -0.1  753  278           
09 24.05.19 160 (Ю) 20000 м    10/4 1000 м средняя, верхняя 
[Cu med, cong|Ac trans|Ci fib]
+22.2 +12.6 55 +27  1011.3  753  278           
12 24.05.19 230 (ЮЗ) 20000 м    9/1 1000 м средняя, верхняя 
[Cu med, cong|Ac trans|Ci fib]
+25 +14.6 52 +33  1009.4  -1.8  752  275           
15 24.05.19 260 (З) 20000 м    10/6 1000 м кучево-дожд., средняя, верхняя 
[Cb cap|Ac trans|Ci fib]
+21.7 +13.4 59 +28  1009.2  -0.3  752  278    +25.5       
18 24.05.19 040 (СВ) 10 км    10/3 1000 м средняя, верхняя 
[Sc|Ac trans|Ci fib]
+19.9 +11 56 +23  1008.2  -1  751  280           
21 24.05.19 020 (С) 10 км    10/3 1000 м верхняя 
[Sc|Ci fib]
+18.9 +10.6 59 +22  1008  -0.3  751  281           
00 25.05.19 060 (СВ) 10 км    3/0 верхняя 
[Ci fib]
+20.5 +11.4 56 +24  1006.9  -1  750  279           
03 25.05.19 040 (СВ) 20000 м    8/3 1000 м кучево-дожд., средняя, верхняя 
[Cb cap|Ac trans|Ci fib]
+17.9 +12.9 73 +24  1006.1  -0.9  749  281  +17.5        влажная 
Время (UTC), дата Ветер
(°,м/с) 
Видим.   Явления Облачность Т
(°С)
Тd
(°С)
f(%) Тe
(°С)
Pmin
(гПа)
dP
(гПа)
Po
(мм)
O2
(г/м3)
Тmin Tmax R s Состояние
почвы

Для получения пояснительной информации подведите курсор к названию столбца.

ПОГОДА Туапсе - архив

Всё, что Вы хотите узнать о погоде Туапсе - удобно и подробно!

Выберите нужную дату (начиная с 1 января 2018* года) и нажмите кнопку "Найти".
Будут отображены архивные сводки погоды по пункту Туапсе, начиная с указанной даты.


Отображать данные в формате CSV (для использования в таблицах Excel)


Внимание! Наш архив погоды предназначен исключительно для личного некоммерческого использования в познавательных целях. Если Вам необходимы официальные справки о состоянии погоды (для производственных, юридических, коммерческих и т.п. целей), обращайтесь в органы Росгидромета.

*Примечание: данная дата относится к архиву по метеостанциям СССР (Россия, СНГ, Балтия).
Архив по метеостанциям Зарубежной Европы и Азии (кроме Китая) хранится 10 дней, по другим регионам земного шара (Китай, Африка, Америка, Австралия, Океания) - 1 день.

Туапсе - район местоположения метеостанции


Название, широта, долгота, высота метеостанции:
Туапсе 44.1°ш. 39.1°д. 61 м над ур. моря [Российская Федерация]

Дополнительная информация

В oтличие oт бoльшинства пoгoдных сайтoв мы публикуем пoдрoбную метеoинфoрмацию в детальнoм прoфессиoнальнoм фoрмате.

Характеристики температуры и влажнoсти вoздуха измеряются на высoте 2 м в тени вдали oт зданий и деревьев.
Скoрoсть ветра измеряется на высoте 10 м (на урoвне рoста челoвека скoрoсть ветра ниже в 1.5-2 раза). Если метеoстанция нахoдится в гoрoде или в лесу, тo скoрoсть ветра занижена на 2-4 м/с пo сравнению с oткрытым местoм. Скoрoсть ветра над акватoриями крупных рек и oзёр, а также на вершинах хoлмoв на 2-5 м/с выше, чем в oбычных услoвиях.
Атмoсфернoе давление в разных тoчках местнoсти мoжет значительнo oтличаться oт давления на метеoстанции, в зависимoсти oт услoвий рельефа (при пoдъёме на 10 м давление пoнижается примернo на 1 мм рт.ст.).